Hourly Data Report for April 12, 2005

TORONTO CITY
ONTARIO

43°40'00.000" N
79°24'00.000" W
112.50 m
6158355
71508
XTO

Download Data

Hourly Data (April 2005)
Hourly Data Report for April 12, 2005
TIME
LST
Temp Definition
°C
Dew Point Definition
°C
Rel Hum Definition
%
Precip. Amount Definition
mm

Wind Dir Definition
10's deg

Wind Spd Definition
km/h
Visibility Definition
km
Stn Press Definition
kPa
Hmdx Definition


Wind Chill Definition


Weather Definition


00:00 5.2 -7.9 38   LegendMM LegendMM   101.18     LegendNANA
01:00 4.6 -5.5 48   LegendMM LegendMM   101.11     LegendNANA
02:00 4.7 -8.4 38   LegendMM LegendMM   101.02     LegendNANA
03:00 5.1 -10.1 32   LegendMM LegendMM   100.95     LegendNANA
04:00 4.3 -9.0 37   LegendMM LegendMM   100.95     LegendNANA
05:00 3.7 -8.6 40   LegendMM LegendMM   100.99     LegendNANA
06:00 2.9 -5.9 52   LegendMM LegendMM   101.07     LegendNANA
07:00 3.3 -5.3 53   LegendMM LegendMM   101.09     LegendNANA
08:00 3.8 -4.7 54   LegendMM LegendMM   101.06     LegendNANA
09:00 4.4 -5.7 48   LegendMM LegendMM   101.02     LegendNANA
10:00 4.7 -4.9 50   LegendMM LegendMM   100.99     LegendNANA
11:00 5.4 -4.4 49   LegendMM LegendMM   100.88     LegendNANA
12:00 5.4 -7.7 38   LegendMM LegendMM   100.80     LegendNANA
13:00 6.6 -9.2 31   LegendMM LegendMM   100.78     LegendNANA
14:00 6.1 -10.2 30   LegendMM LegendMM   100.74     LegendNANA
15:00 7.5 -8.8 30   LegendMM LegendMM   100.55     LegendNANA
16:00 7.4 -7.9 33   LegendMM LegendMM   100.49     LegendNANA
17:00 7.1 -6.3 38   LegendMM LegendMM   100.34     LegendNANA
18:00 8.1 -5.5 38   LegendMM LegendMM   100.26     LegendNANA
19:00 5.1 -6.9 42   LegendMM LegendMM   100.26     LegendNANA
20:00 4.5 -4.3 53   LegendMM LegendMM   100.31     LegendNANA
21:00 4.7 -4.2 52   LegendMM LegendMM   100.35     LegendNANA
22:00 4.9 -3.4 55   LegendMM LegendMM   100.34     LegendNANA
23:00 5.8 -6.5 41   LegendMM LegendMM   100.33     LegendNANA

Notes on Data Quality.

Legend

  • E = Estimated
  • M = Missing
  • NA = Not Available*
  • [empty] = Indicates an unobserved value
Date modified: